GEFSGL_500_meanwind_126.txt.gz
Wind_Speed
15 17 18 19 19 20 21 22 21 20 21 21 20 20 20 20 20 21 20 21 21 21 20 20 20 20 20 20 21 22 22 23 23 23 24 24 24 25 25 25 25 25 25
14 15 16 19 19 19 20 20 20 20 20 21 21 21 22 22 22 22 23 23 23 23 23 23 24 24 23 24 24 25 26 26 26 27 27 27 28 28 28 28 28 29 29
12 13 15 16 18 19 20 21 21 21 22 22 23 23 23 23 23 24 25 26 26 26 26 26 27 27 27 27 28 29 29 30 30 30 30 31 31 31 31 31 32 32 32
12 13 14 16 17 18 20 20 21 21 22 22 23 24 24 25 26 27 27 27 28 28 29 29 30 30 31 31 31 32 32 32 33 33 33 33 34 35 35 35 35 35 35
13 13 14 16 17 18 19 20 21 22 24 25 25 26 26 27 28 29 30 30 31 31 32 32 33 34 34 34 34 34 35 35 36 36 36 36 37 38 38 38 38 38 38
14 15 16 17 18 19 20 21 21 23 25 26 27 28 28 29 30 31 32 33 33 34 34 35 35 36 36 37 37 37 38 38 39 39 39 39 39 41 41 41 41 41 40
16 16 17 19 20 21 21 22 22 24 26 27 28 29 30 31 31 32 33 34 36 37 37 37 37 38 38 39 40 41 41 41 42 42 42 42 42 43 44 44 45 45 44
18 19 20 21 22 23 24 24 25 26 27 29 30 31 32 33 34 34 35 35 36 37 39 39 40 41 42 42 43 43 44 44 44 44 45 45 46 47 47 48 48 48 47
20 21 22 23 24 26 27 28 28 29 29 30 32 32 33 34 35 36 36 36 37 38 40 42 43 44 45 45 45 45 45 46 47 47 47 47 48 49 50 50 50 50 49
23 24 25 26 27 27 28 29 30 31 32 32 33 34 34 35 36 37 37 37 38 40 42 43 44 46 47 47 47 47 47 47 48 49 50 50 51 52 52 53 53 53 52
25 26 26 27 28 29 30 30 30 31 33 34 34 34 35 36 36 37 38 38 40 40 42 44 45 47 47 48 48 49 49 50 50 51 52 52 53 54 55 55 55 55 56
26 27 28 28 29 30 31 31 31 31 32 33 34 35 36 37 38 38 39 40 41 42 43 44 46 47 48 49 50 50 51 51 52 54 54 54 54 55 56 57 57 58 58
26 27 27 28 29 30 31 31 32 32 33 34 34 35 36 37 38 39 41 42 43 44 45 46 47 49 50 51 52 52 52 53 55 55 56 56 57 57 58 58 59 59 60
26 27 28 29 29 30 30 31 33 34 34 35 36 37 37 38 39 41 43 44 45 47 48 49 50 50 51 52 53 54 55 56 56 57 58 59 59 59 59 60 60 61 62
27 28 29 30 30 31 32 33 34 35 36 36 37 38 39 40 42 43 44 46 48 49 49 50 50 51 52 53 54 56 57 57 58 59 59 59 59 59 59 59 60 61 61
28 29 30 31 32 33 34 35 35 36 37 38 40 41 42 43 44 46 47 48 49 50 51 52 52 52 53 55 56 57 57 58 58 58 58 58 59 59 59 59 59 60 60
30 31 32 33 34 35 36 37 38 39 40 41 42 43 45 46 47 48 49 50 51 51 51 51 52 53 55 57 57 58 58 58 58 58 58 58 58 58 58 57 57 57 57
32 33 34 35 36 37 38 39 40 41 42 43 45 46 47 48 49 49 50 50 50 50 51 52 53 54 55 55 56 57 57 58 58 58 58 58 57 56 55 55 54 54 53
32 33 35 36 38 39 40 41 42 44 45 46 47 47 48 48 48 49 49 49 50 51 52 52 53 54 54 54 54 55 56 56 56 56 55 54 54 53 52 51 49 49 48
34 36 37 39 40 41 42 43 44 45 46 47 48 48 47 47 48 48 49 50 51 52 52 52 52 53 53 53 53 52 52 51 51 51 50 49 48 48 47 46 44 43 43
37 38 39 40 41 42 43 44 45 46 46 47 47 47 47 47 48 48 49 50 51 51 51 50 51 51 50 50 49 47 46 45 45 44 44 44 43 41 40 40 40 39 39
39 40 41 42 43 44 44 45 45 46 46 47 46 46 46 46 46 47 47 47 47 47 47 46 46 46 46 45 44 42 41 40 40 39 38 38 37 36 36 36 35 35 34
41 42 43 43 43 44 44 45 45 45 45 45 44 44 44 45 45 45 45 44 43 43 42 42 42 41 41 40 38 38 37 36 35 35 34 32 31 31 30 30 31 31 30
41 41 42 42 43 43 43 43 43 43 42 42 42 43 43 43 42 42 41 40 39 39 39 39 38 38 37 36 35 34 33 32 30 29 29 29 29 28 27 27 27 26 25
40 40 41 41 41 41 41 40 40 40 40 40 40 40 40 40 39 38 37 37 37 37 36 34 34 33 32 32 31 30 29 29 27 27 27 27 25 25 25 24 23 22 21
39 39 39 39 39 38 38 38 38 38 38 38 38 38 38 37 36 35 35 34 33 32 31 30 29 29 28 28 27 26 25 24 23 23 23 22 21 21 21 21 20 20 19

GEFSGL_500_meanwind_132.txt.gz
Wind_Speed
14 15 16 18 19 19 19 19 20 20 20 21 22 22 20 20 20 20 20 20 21 21 21 21 21 22 22 23 23 23 23 24 25 25 26 26 26 26 27 27 28 28 28
13 14 15 16 17 18 20 20 20 20 20 21 21 21 20 21 21 21 21 22 23 23 23 23 24 24 25 26 26 27 27 27 28 28 29 30 31 31 31 31 32 32 32
11 13 14 15 16 16 17 18 19 20 20 21 21 21 22 22 22 23 24 24 24 25 25 26 27 27 28 28 29 30 30 31 31 32 33 34 34 34 35 35 35 35 35
9 11 13 14 15 15 16 17 18 19 20 20 21 21 22 23 24 25 25 26 26 27 28 29 29 30 31 32 32 33 33 33 34 35 36 37 37 37 37 37 38 38 38
9 10 11 13 14 15 16 16 17 18 19 20 21 22 24 25 26 27 27 28 29 30 31 32 32 33 34 35 35 36 36 37 37 38 39 39 40 40 40 40 40 40 40
10 11 12 13 13 14 15 16 17 18 19 20 22 23 25 26 27 28 29 29 31 32 33 34 35 36 37 37 38 38 39 40 40 41 41 42 42 43 43 43 43 43 42
12 13 13 13 14 15 16 16 17 18 20 22 24 25 26 27 29 30 32 33 33 34 35 37 37 38 39 39 39 40 42 43 43 43 44 44 45 45 46 46 46 46 45
16 16 16 16 17 17 18 20 21 22 23 24 25 27 29 29 31 31 32 33 34 36 37 38 39 40 40 41 41 42 42 43 44 45 46 46 47 47 48 48 48 48 48
18 19 19 19 19 20 21 22 24 25 26 27 28 29 30 32 32 33 35 35 36 37 39 40 41 42 43 43 44 43 43 44 45 46 46 47 47 49 50 51 51 52 51
20 21 21 22 22 23 24 25 27 28 28 30 31 31 32 33 34 36 38 38 38 39 40 41 42 43 44 44 45 45 45 46 47 47 48 49 50 51 51 52 53 54 54
22 22 23 24 25 26 27 27 28 28 30 30 31 32 33 34 34 36 38 39 40 41 41 42 43 43 44 44 45 46 47 48 49 50 50 51 52 52 54 54 54 55 55
24 24 24 26 27 28 28 29 29 30 31 32 32 33 34 35 36 38 39 40 41 42 43 44 45 45 46 46 48 49 50 51 52 52 53 53 53 54 55 55 55 55 55
25 25 26 28 29 29 30 31 31 32 33 34 35 35 36 37 38 39 40 42 42 43 44 45 46 48 49 50 50 51 52 53 54 54 54 54 55 56 56 56 56 56 56
27 27 28 30 31 30 31 32 32 33 34 35 35 36 38 39 40 41 42 43 45 46 47 48 50 51 51 52 52 53 53 54 54 54 55 55 56 57 58 58 58 58 58
28 28 30 32 32 32 33 33 33 33 34 35 37 38 40 41 41 42 43 45 46 47 49 50 51 52 52 53 53 53 54 54 55 55 55 55 55 57 57 58 58 57 57
28 29 30 31 33 33 34 34 34 35 36 37 39 40 41 41 42 44 45 47 48 49 50 51 51 52 52 53 53 54 54 55 55 56 56 56 56 56 56 56 56 55 55
27 29 29 30 31 32 33 33 35 36 37 39 40 41 43 44 45 46 48 49 50 49 50 50 51 51 52 52 53 53 54 55 55 55 55 55 55 54 55 55 54 54 53
26 28 29 30 31 33 34 35 37 38 39 41 42 43 45 46 47 48 49 49 49 49 50 50 50 51 51 51 51 52 52 52 52 52 52 51 51 51 51 51 50 50 49
27 28 30 31 33 34 36 37 39 40 41 43 44 45 46 47 48 48 48 48 49 49 49 49 49 49 49 49 50 50 50 50 50 50 49 49 49 49 48 46 45 43 42
29 30 32 33 35 36 38 39 41 42 43 44 45 46 46 47 47 47 46 46 46 46 45 45 46 47 47 47 47 47 47 47 47 46 46 45 45 44 43 41 40 39 38
31 32 34 35 37 38 40 41 42 43 44 45 45 46 45 45 44 44 44 43 42 42 42 43 43 43 43 44 44 44 44 43 42 42 41 41 40 40 39 38 37 36 35
33 35 36 38 39 40 41 42 42 43 44 44 44 44 43 42 42 41 40 40 40 41 41 42 42 41 41 41 41 40 40 39 39 38 37 36 36 35 35 34 34 33 32
36 37 38 39 40 40 41 42 42 42 42 42 41 41 40 40 39 38 38 39 39 40 40 40 39 38 38 38 37 37 36 35 34 33 32 32 32 31 31 30 30 30 29
37 38 39 39 39 39 39 40 40 40 40 40 39 38 37 37 37 37 37 38 38 38 37 37 36 35 34 33 32 31 31 30 30 29 29 28 28 27 26 26 25 25 25
37 38 38 38 38 39 39 39 39 39 38 38 37 36 36 36 35 35 36 36 36 35 34 32 31 31 30 29 28 28 27 27 26 25 24 24 23 22 22 22 21 21 21
37 37 37 37 37 37 37 37 37 37 36 35 34 34 33 33 33 33 33 32 32 31 29 28 27 26 26 25 24 23 23 22 21 21 21 20 19 19 19 18 18 18 18

GEFSGL_500_meanwind_138.txt.gz
Wind_Speed
10 10 11 13 15 17 18 19 19 19 19 19 19 20 20 20 20 19 19 19 18 18 18 18 18 18 19 20 20 21 21 22 23 23 24 24 25 25 25 26 26 27 27
8 9 10 11 14 16 18 19 20 19 19 20 20 20 21 21 21 20 20 20 20 20 20 20 20 21 21 22 22 23 24 24 25 26 27 28 28 29 29 29 30 30 30
8 10 11 11 12 14 16 18 19 19 19 20 20 20 21 21 21 21 20 21 21 21 21 22 22 23 23 24 25 26 26 27 28 29 30 31 31 32 32 33 34 34 34
9 10 11 12 13 13 14 15 17 17 18 19 19 19 19 20 20 21 21 22 22 23 22 23 23 24 25 26 27 28 29 30 31 32 33 34 35 35 36 36 36 36 37
9 10 10 11 12 13 14 15 16 16 17 18 19 19 19 20 21 22 22 23 24 24 24 25 26 27 28 29 30 31 32 33 34 35 35 36 37 38 38 39 39 39 39
8 9 11 11 11 12 13 15 15 16 17 18 18 19 20 20 22 23 24 24 24 24 25 27 29 30 31 32 33 33 34 36 37 38 39 39 39 40 40 40 40 41 40
9 9 9 11 12 12 13 14 14 16 16 17 18 18 18 20 22 23 23 23 24 25 27 29 31 32 33 33 34 35 36 37 39 40 39 40 41 42 43 43 43 43 43
12 12 13 12 12 13 13 13 14 15 16 17 17 18 20 21 23 24 25 26 27 28 30 31 33 33 34 34 35 36 37 38 40 41 41 42 43 44 45 46 45 46 45
14 14 15 15 15 15 16 16 16 17 18 20 21 22 23 24 25 25 26 28 29 30 31 32 33 34 35 36 37 38 39 40 41 42 43 42 43 44 45 46 47 47 48
16 16 16 17 17 17 17 18 19 20 21 22 23 24 25 26 27 28 29 30 32 33 34 35 35 36 37 38 39 40 41 41 42 43 43 44 44 45 47 48 49 50 51
18 18 18 18 18 18 19 20 21 22 23 24 25 26 27 28 29 30 31 32 34 36 37 37 38 39 39 41 42 43 43 44 45 46 47 47 48 49 50 51 52 53 53
20 20 21 20 21 21 22 22 24 25 26 27 28 29 30 30 30 32 33 34 35 36 37 38 39 40 42 43 44 45 46 48 48 49 50 50 51 52 53 53 53 53 53
22 22 23 23 23 24 24 25 27 28 28 29 30 31 31 32 32 33 34 35 36 38 39 40 41 43 44 45 46 47 48 49 50 52 53 54 54 54 54 54 53 54 53
23 23 24 25 26 26 26 27 28 29 31 32 32 33 34 35 35 36 36 38 39 40 41 42 44 45 46 47 48 49 50 51 52 53 53 54 54 54 54 55 55 54 54
23 23 23 25 26 28 29 29 30 31 32 33 35 35 36 37 37 37 38 39 40 42 43 44 46 47 48 49 50 51 51 52 52 52 52 52 53 53 53 53 53 54 54
23 24 25 26 27 28 29 30 31 32 33 34 35 36 37 38 39 40 41 42 43 45 46 46 47 48 49 50 51 51 52 52 52 52 52 52 51 51 51 52 52 52 51
24 25 25 26 26 27 29 29 30 32 33 33 34 36 37 39 40 41 42 44 45 46 47 47 48 49 50 51 51 51 51 51 51 51 51 51 50 50 49 49 50 49 49
23 24 24 25 26 27 28 29 30 31 32 33 35 36 38 39 41 43 44 45 46 47 47 48 48 48 49 48 48 49 48 48 49 49 49 47 47 47 47 47 48 47 47
23 24 25 26 27 28 29 30 31 33 35 36 37 38 40 42 43 44 45 45 45 45 45 45 45 45 45 45 46 45 45 46 46 46 46 45 45 45 45 46 45 45 44
23 24 25 25 27 28 30 32 34 36 37 38 40 41 42 43 43 43 43 43 43 42 42 42 42 43 43 43 43 44 44 45 44 44 43 43 43 42 42 41 40 40 40
21 23 24 26 28 30 31 33 35 36 38 39 40 41 43 43 43 43 42 42 42 42 41 41 41 41 42 42 41 41 42 42 42 40 39 39 38 38 37 37 36 36 35
23 25 26 28 30 31 33 34 36 37 39 39 40 41 42 42 42 42 41 41 41 41 41 40 41 40 40 39 38 38 39 39 37 35 35 35 35 34 34 33 32 31 31
25 27 29 30 32 33 35 36 37 38 39 40 40 41 41 41 40 40 39 39 39 39 39 39 39 38 38 37 36 35 35 34 32 32 32 32 31 30 29 29 29 29 29
28 29 31 32 34 35 36 37 37 38 38 39 39 39 39 38 38 37 37 37 37 36 36 36 36 36 35 34 33 32 31 30 30 29 29 29 28 26 26 26 25 25 25
30 31 32 33 34 35 36 37 37 37 37 37 37 37 37 36 35 35 35 34 34 34 34 34 34 33 31 30 29 28 27 26 26 25 25 25 24 24 23 23 22 23 22
31 32 33 34 35 36 36 36 36 36 36 35 35 35 34 34 34 33 33 32 32 32 31 30 29 28 27 26 26 25 24 23 23 23 22 22 22 21 21 21 20 20 20

GEFSGL_500_meanwind_144.txt.gz
Wind_Speed
8 10 11 12 14 15 16 18 20 21 22 22 21 21 21 22 22 22 22 22 21 20 20 20 21 20 20 20 20 20 20 20 20 21 21 22 23 23 24 24 25 25 25
8 8 10 12 14 15 16 17 20 21 22 22 22 22 22 23 23 24 24 24 23 22 22 22 22 22 22 22 22 22 22 22 22 22 23 24 25 26 27 28 28 28 29
8 9 10 11 13 14 15 17 19 20 21 22 23 23 23 24 25 25 25 24 24 24 23 23 24 24 24 23 23 24 25 25 25 25 26 26 26 27 28 29 30 31 32
9 9 10 11 12 13 15 17 18 18 20 21 21 22 23 24 24 24 24 25 24 24 24 24 24 24 25 25 26 26 26 27 27 28 28 29 29 30 31 32 33 34 34
9 10 11 11 12 13 14 16 17 18 18 19 20 20 22 22 23 23 24 24 24 25 25 25 24 25 26 27 27 27 29 30 31 31 31 32 32 33 34 35 35 36 37
12 11 12 12 12 13 14 15 16 17 18 19 20 21 22 23 23 23 23 24 25 26 26 26 25 26 27 27 28 29 30 31 32 33 33 34 35 36 37 37 38 39 39
12 12 13 12 13 14 14 15 16 17 19 20 20 21 22 24 25 25 25 25 26 26 26 26 27 28 29 29 30 31 32 33 34 35 35 35 36 38 39 39 40 40 40
12 12 13 13 13 13 15 16 17 18 19 20 21 22 22 23 23 23 23 25 27 26 27 28 29 29 30 31 33 33 34 35 36 36 37 38 39 41 42 42 42 43 43
13 13 13 13 13 14 15 16 16 17 18 19 19 21 21 22 23 23 24 25 26 27 28 29 31 32 33 33 34 35 36 37 38 39 40 41 42 44 44 45 45 46 45
16 15 15 15 15 15 16 17 17 17 18 18 20 21 22 24 25 25 26 27 28 29 30 31 33 34 35 35 36 37 38 39 40 41 42 43 44 44 46 47 47 48 49
16 16 16 16 16 17 17 17 17 18 18 19 20 22 23 23 24 25 26 28 30 31 32 34 35 37 36 37 38 39 40 40 42 43 44 45 46 46 47 48 49 50 51
18 17 18 18 17 17 17 18 18 18 19 20 21 22 23 24 25 26 28 29 30 32 34 35 36 37 38 39 40 40 41 42 43 44 45 46 47 48 49 51 52 53 53
18 19 19 19 20 20 20 20 20 20 21 21 22 23 24 24 26 27 28 29 31 32 33 35 37 39 40 40 41 42 43 44 45 46 47 47 49 50 51 52 53 54 54
19 19 19 20 21 20 20 20 20 20 21 22 23 24 25 27 28 29 30 31 32 33 35 37 39 40 41 42 44 45 46 47 47 48 48 49 50 51 51 52 53 53 53
19 19 20 21 22 22 21 21 21 21 22 23 24 25 26 27 29 30 30 32 33 35 36 38 40 41 42 44 46 47 47 48 49 49 49 49 50 51 51 51 51 52 52
18 18 18 17 18 19 20 21 21 22 23 24 24 25 26 27 28 29 30 32 34 36 38 40 42 44 44 45 46 47 47 48 49 49 49 50 50 50 51 51 51 51 50
16 17 17 18 18 19 19 20 21 22 22 24 25 26 28 29 30 32 34 34 36 37 38 39 40 41 43 44 45 45 46 47 47 48 48 48 49 49 49 50 50 50 50
16 16 16 17 19 20 21 21 22 23 24 25 26 28 30 31 32 34 35 36 37 38 39 40 41 41 41 41 42 43 44 45 46 46 46 47 47 47 47 47 47 46 45
16 17 18 20 21 22 22 23 24 24 25 27 29 30 32 33 34 35 36 37 38 39 40 40 40 41 40 40 41 41 42 42 42 42 42 42 42 42 42 41 41 40 40
18 19 20 21 22 22 23 23 25 26 27 28 30 32 33 34 35 36 36 37 38 39 40 40 40 40 40 40 40 40 40 39 39 39 39 39 38 38 37 37 37 37 37
18 19 19 20 22 23 24 25 27 28 29 31 32 33 34 35 36 37 38 38 38 39 39 39 38 38 38 38 38 38 38 38 37 37 37 36 36 34 34 33 33 33 33
18 19 21 22 23 24 26 27 28 30 31 33 34 35 36 36 37 37 38 38 38 38 37 37 37 37 36 36 37 36 36 35 35 34 34 34 33 32 31 30 30 29 28
20 22 23 24 25 26 27 29 30 32 33 34 35 36 36 37 37 37 37 37 37 37 36 36 36 36 36 35 35 34 34 34 33 32 31 31 30 29 28 27 27 27 26
22 23 25 26 27 28 29 31 32 34 35 35 36 36 36 36 36 37 37 37 37 36 36 36 36 35 35 34 34 33 32 31 30 29 29 28 27 27 26 25 25 25 25
24 25 26 27 28 30 31 32 33 34 35 35 35 35 35 35 35 36 36 36 36 35 35 34 34 33 32 32 31 30 29 28 27 26 25 24 24 23 24 24 25 24 24
25 26 27 29 30 31 32 33 33 34 34 34 33 33 33 34 34 34 34 34 34 33 32 32 31 30 30 29 28 27 26 25 23 23 22 22 22 22 22 23 23 23 22

GEFSGL_500_meanwind_150.txt.gz
Wind_Speed
10 10 11 13 13 14 15 16 18 19 22 23 23 23 24 24 24 25 25 25 25 24 23 23 22 22 22 21 21 21 22 22 22 23 24 24 25 26 27 28 28 28 29
11 11 11 12 13 13 14 16 17 19 20 22 23 24 25 25 25 25 26 26 25 25 25 25 25 25 24 24 24 24 24 24 24 25 26 26 26 27 28 28 28 29 30
11 11 11 11 12 13 14 15 16 18 20 21 23 23 24 25 25 25 25 26 27 27 27 27 27 26 26 26 26 26 27 27 27 28 28 29 29 29 29 30 30 31 32
12 12 11 11 11 11 12 14 15 17 19 21 22 23 23 24 25 26 26 26 27 28 27 28 28 28 28 29 28 29 29 30 30 30 30 31 32 32 32 33 34 34 35
12 12 11 12 12 12 12 13 15 17 18 18 20 21 23 23 24 25 26 26 28 28 28 28 28 29 29 30 31 32 32 32 32 32 32 33 34 35 36 36 36 37 38
13 13 12 12 12 12 12 13 14 15 16 17 19 19 21 22 23 24 25 26 27 28 28 29 30 31 31 32 32 32 33 34 34 34 35 36 37 38 39 39 39 39 40
14 14 14 14 14 13 13 14 14 15 16 17 18 20 20 21 23 24 25 26 27 27 29 30 31 31 32 33 33 34 35 36 37 38 38 39 40 40 41 40 41 42 43
14 15 15 16 15 15 15 15 16 17 17 18 19 21 22 22 23 24 25 26 28 29 30 30 31 31 32 33 35 35 36 37 38 39 40 41 41 41 42 43 43 44 45
16 16 16 16 16 16 16 17 18 18 18 18 20 22 22 22 24 25 26 28 29 30 30 31 31 31 33 33 34 36 38 39 40 41 42 43 44 44 45 46 46 47 47
18 19 18 18 17 16 16 16 17 17 18 19 20 21 22 22 23 24 26 27 28 29 30 30 31 32 33 35 36 37 37 39 40 42 43 44 44 45 47 48 49 49 50
18 19 20 19 18 17 16 15 15 16 17 19 20 21 21 22 23 25 26 27 27 28 29 29 30 32 33 34 36 37 39 40 41 43 45 46 46 48 49 50 51 53 54
17 17 19 19 19 18 18 18 18 18 18 19 20 20 21 22 23 25 26 26 26 27 28 29 31 32 34 35 37 39 41 43 44 45 47 48 49 50 52 53 54 55 56
18 18 19 19 20 20 19 19 19 20 20 21 22 23 23 24 24 25 27 27 28 30 31 32 33 34 35 37 38 41 42 43 45 47 48 50 51 52 53 54 55 56 57
17 18 18 18 19 19 20 20 20 21 21 22 22 23 23 23 24 26 27 29 29 30 32 32 34 35 37 38 40 42 43 45 47 48 49 50 52 52 53 54 54 55 55
17 17 18 19 19 19 20 20 21 22 22 23 23 23 24 24 25 27 28 30 31 32 33 34 35 37 39 40 42 43 44 46 47 48 49 49 49 49 50 52 53 53 53
17 17 17 18 18 19 19 20 20 21 21 22 23 25 26 27 28 29 30 31 31 33 34 36 37 39 40 40 41 42 43 44 45 46 46 46 47 47 48 49 49 49 49
16 17 18 18 18 19 19 20 20 21 22 23 25 26 27 28 29 30 31 32 33 34 35 36 38 39 40 40 41 41 42 42 43 44 44 45 45 45 46 46 46 47 47
17 18 18 18 18 18 19 20 21 22 22 24 25 27 28 29 31 32 32 33 34 35 36 38 39 40 41 41 41 42 42 42 43 43 43 43 43 43 43 43 43 44 43
18 18 18 19 19 19 20 21 22 23 25 26 27 28 29 31 31 32 33 34 36 37 38 39 40 40 41 42 42 42 42 42 41 41 41 41 41 41 42 41 40 40 39
17 17 17 18 19 20 22 23 24 25 26 27 29 30 31 32 33 34 35 36 37 38 39 40 41 41 42 42 42 42 41 40 40 39 40 40 40 40 39 39 38 38 37
17 17 18 19 21 22 23 24 25 26 28 29 30 31 33 34 35 36 37 38 38 39 39 40 40 40 41 40 40 40 40 40 40 40 40 39 39 38 38 37 37 37 36
18 19 21 22 23 24 24 25 26 28 29 30 31 32 33 34 35 36 37 38 38 38 39 39 39 39 39 40 40 40 40 40 40 40 39 38 38 37 37 36 36 35 33
20 21 22 23 23 24 25 26 28 29 30 31 32 33 34 35 36 37 37 38 38 38 38 39 39 39 39 39 39 39 39 39 38 37 37 36 35 35 34 33 32 31 30
20 21 22 23 24 25 26 27 29 30 31 32 32 33 34 35 36 36 36 37 37 37 38 38 38 38 38 38 38 37 37 36 35 35 33 32 32 32 30 29 27 27 26
21 22 23 24 25 27 28 29 30 31 32 32 33 34 34 35 35 35 35 35 35 36 36 37 36 36 36 36 35 34 33 32 31 30 29 29 28 27 26 25 25 24 24
23 24 25 26 27 29 30 31 31 32 32 33 33 34 34 34 34 34 34 34 34 35 35 34 34 34 33 32 31 30 29 29 28 27 26 25 25 24 24 23 23 22 23

GEFSGL_500_meanwind_156.txt.gz
Wind_Speed
12 12 13 14 14 15 15 16 17 18 19 21 22 23 23 23 23 23 23 23 23 23 24 24 24 24 23 23 23 23 23 23 23 24 23 23 23 24 25 26 26 27 27
13 12 12 14 14 14 15 16 16 18 19 20 21 22 23 24 24 24 24 25 24 24 25 25 26 26 26 26 26 26 26 26 25 26 26 26 27 27 28 29 29 29 30
13 12 13 13 13 13 14 15 17 18 19 20 20 20 22 23 24 24 24 25 24 25 26 26 27 27 28 28 28 28 29 28 28 28 29 30 31 31 32 32 33 33 34
14 14 14 14 14 14 14 16 16 17 19 19 19 20 21 23 23 24 25 25 25 26 27 28 28 28 29 29 30 30 30 31 31 32 32 33 33 34 34 34 34 34 35
14 15 15 15 15 15 16 15 15 17 18 18 19 20 21 22 22 23 25 25 25 26 27 28 29 30 31 30 30 31 31 31 32 33 33 34 35 35 35 36 37 37 37
15 15 15 16 15 16 15 14 14 14 15 17 18 19 20 21 21 22 24 25 25 26 27 28 28 29 29 31 32 32 32 32 33 33 34 34 35 35 36 37 38 39 40
16 15 15 15 15 15 15 15 14 15 15 16 18 19 19 19 19 21 22 23 24 26 27 27 27 28 30 31 32 32 32 33 34 34 35 35 37 38 38 39 40 41 41
15 16 16 16 16 15 15 16 16 17 17 17 17 17 18 19 20 21 22 22 22 23 24 26 27 28 30 30 30 31 32 33 34 35 36 37 39 39 40 41 41 42 43
16 15 16 17 18 17 16 16 17 17 18 18 19 19 19 19 20 21 21 22 22 23 24 25 27 28 30 31 31 32 33 34 35 36 37 38 39 40 42 42 42 43 45
17 16 17 17 18 18 18 18 18 19 19 20 20 20 20 21 22 22 23 23 23 24 25 26 27 29 30 30 32 33 34 35 36 37 38 39 40 41 42 43 44 45 47
18 17 17 17 18 19 19 19 19 19 19 20 20 20 22 23 23 23 23 23 24 25 25 26 28 29 30 31 32 34 35 36 37 38 40 41 42 43 44 44 45 47 48
19 19 18 18 19 19 19 19 19 19 20 20 21 21 21 21 22 23 23 24 24 25 26 27 28 29 30 32 34 35 36 36 38 39 40 41 42 43 45 46 47 48 49
19 19 19 18 19 20 20 20 20 21 21 22 22 22 23 22 23 23 24 24 25 25 27 28 29 30 32 33 34 35 36 37 38 40 41 42 43 44 45 46 47 48 49
20 20 19 19 19 20 20 21 22 22 23 23 23 23 23 23 23 23 24 24 25 26 28 29 31 32 34 35 36 36 38 39 40 41 42 43 44 45 46 47 48 48 48
19 19 20 20 21 21 21 21 21 22 22 22 22 23 22 22 23 24 25 25 26 28 29 31 32 33 35 36 37 38 39 40 42 42 43 44 44 45 44 45 45 45 45
19 19 20 20 20 20 20 19 20 20 21 21 21 22 23 24 24 25 25 26 27 29 31 32 33 34 35 36 38 39 40 41 42 44 43 43 43 43 43 42 42 42 43
19 19 19 19 19 18 18 19 20 20 21 21 21 22 24 25 25 26 27 29 30 31 33 34 36 37 37 39 40 41 41 42 43 43 43 42 42 42 41 41 41 41 41
19 19 19 19 19 19 19 20 21 21 22 23 23 24 25 26 27 28 30 31 32 33 35 36 37 37 39 39 40 40 41 41 41 41 41 41 40 40 40 40 41 41 41
18 18 19 19 19 19 19 19 20 21 22 23 24 25 26 27 28 29 30 31 33 34 35 36 37 37 38 38 38 39 40 40 40 40 40 40 40 40 40 41 41 41 41
18 18 19 20 19 18 18 19 20 21 22 23 24 25 27 28 29 30 31 33 34 34 35 35 36 36 36 37 38 38 39 39 40 39 39 39 39 40 40 40 40 40 39
18 18 19 19 19 20 20 21 22 23 24 25 26 27 28 29 31 32 33 33 34 34 34 35 35 36 37 37 38 38 38 38 38 38 38 38 38 38 38 38 37 37 37
18 18 19 19 20 21 21 22 23 24 25 26 27 28 29 30 31 32 32 33 33 34 34 35 35 36 36 36 36 37 37 37 37 37 37 37 37 36 36 35 35 34 34
18 18 19 20 21 22 23 23 24 25 26 27 28 28 29 30 31 31 32 33 33 34 34 35 35 35 35 35 35 35 35 35 35 35 35 35 34 34 33 32 32 31 30
17 19 20 21 22 23 24 24 24 25 26 27 28 29 30 31 32 32 33 33 33 33 33 34 34 34 34 34 34 34 33 33 33 33 33 33 32 30 30 29 29 28 27
19 20 21 22 23 23 24 24 25 26 27 29 30 31 31 32 32 33 33 33 33 32 32 33 33 33 33 33 33 33 32 32 32 31 30 30 28 28 27 26 26 25 25
20 21 21 22 23 24 24 26 27 28 29 30 30 31 32 32 32 32 32 33 33 32 32 32 32 32 32 31 31 31 30 30 29 28 27 26 26 25 24 24 23 23 22

GEFSGL_500_meanwind_162.txt.gz
Wind_Speed
15 14 14 14 14 14 14 13 13 14 15 17 18 19 19 20 21 22 22 21 21 21 22 22 22 23 23 22 22 23 23 23 24 24 24 24 24 24 24 24 25 25 26
15 14 14 14 14 14 14 14 14 15 16 16 17 18 19 20 21 22 22 22 22 22 23 23 23 23 24 24 24 24 25 25 25 25 26 26 26 27 27 27 27 28 29
13 13 14 15 15 15 15 15 16 15 16 17 18 18 19 19 20 21 22 23 23 23 23 24 24 24 25 25 25 26 27 27 27 28 29 29 28 28 29 29 29 30 31
13 13 14 15 15 15 15 16 15 15 16 17 17 18 19 19 21 22 22 22 23 23 24 24 25 25 25 25 26 27 28 28 29 29 29 29 29 30 30 30 31 31 32
13 14 15 15 15 15 15 15 15 14 15 15 17 17 18 19 20 21 22 22 23 23 24 24 24 25 25 26 26 27 28 28 29 29 29 30 30 30 30 31 32 33 34
14 14 14 15 16 15 15 14 15 16 16 16 17 18 18 18 19 21 21 21 22 23 23 24 24 26 25 25 25 26 28 28 28 28 29 30 30 31 32 32 33 34 35
16 15 15 16 16 16 16 16 16 16 16 17 18 18 18 18 19 20 21 22 23 24 25 25 25 25 25 26 26 26 27 27 28 29 30 31 32 32 33 34 35 36 37
17 17 16 16 17 17 17 17 17 18 17 17 17 18 18 18 19 19 20 21 21 22 24 25 25 26 26 25 25 26 27 28 28 30 31 32 33 34 35 35 36 36 37
17 17 17 17 17 17 18 18 18 18 17 18 18 18 18 19 18 19 20 20 21 21 22 23 23 23 23 23 25 26 27 28 29 31 32 33 34 34 35 36 37 39 40
18 18 17 17 17 17 17 18 18 18 19 19 19 18 19 19 20 21 21 21 22 23 23 23 23 22 23 24 25 27 28 29 30 31 32 33 33 35 36 37 39 41 42
19 18 18 17 17 18 17 18 18 19 20 20 20 20 20 20 20 20 21 22 23 23 23 24 24 24 24 25 26 28 29 30 32 33 33 34 35 36 38 40 41 42 44
20 19 18 18 18 18 18 18 18 19 20 19 19 20 21 22 22 22 22 22 23 24 24 24 25 25 26 26 28 29 30 31 32 33 34 36 38 39 40 41 42 44 45
20 20 20 20 19 19 19 19 19 19 20 20 20 21 22 22 22 22 22 23 24 25 25 25 26 26 27 28 30 31 32 33 34 35 36 38 39 40 41 42 42 43 44
21 21 20 20 20 19 19 19 20 21 21 21 21 22 22 22 22 23 23 23 24 25 26 26 27 28 29 31 31 32 33 34 35 36 37 39 40 41 41 42 43 43 43
22 21 21 21 20 20 19 19 20 21 21 22 22 22 23 23 23 24 24 24 25 26 27 28 29 31 32 33 33 34 34 35 36 37 38 39 40 41 42 42 42 42 42
22 22 22 21 20 20 19 20 20 20 21 21 22 22 23 23 23 24 25 25 25 26 28 29 30 32 33 33 34 35 35 36 37 38 39 40 40 41 41 41 41 41 41
23 22 21 20 20 20 20 20 20 20 20 21 21 22 23 23 24 25 25 26 27 28 30 31 32 32 33 34 35 36 37 37 38 38 39 40 40 40 40 40 40 40 40
22 22 21 20 20 20 21 21 20 21 22 21 21 22 23 24 25 26 26 27 28 30 31 31 32 33 34 34 35 36 36 37 37 38 39 39 40 40 40 39 39 39 40
22 21 20 20 20 19 20 20 21 22 22 22 22 23 24 25 26 27 28 29 30 31 31 32 33 33 34 35 36 36 36 37 38 38 38 39 39 39 38 38 38 38 38
21 20 19 19 19 19 21 21 22 22 22 23 23 24 26 27 28 28 29 30 30 31 32 32 33 33 34 34 35 36 36 37 37 37 37 37 37 37 37 37 37 36 36
18 18 18 18 19 20 21 22 22 23 23 24 25 26 28 28 29 30 30 31 31 31 32 33 33 34 34 35 35 35 36 36 36 36 36 36 36 36 36 36 35 35 35
18 18 18 19 20 21 22 22 23 24 25 26 27 28 29 29 29 30 30 31 32 32 33 33 34 34 34 35 35 36 36 36 36 36 36 36 36 35 35 35 34 34 33
18 19 20 21 21 22 23 24 25 26 27 28 28 29 30 30 30 31 31 32 32 33 33 34 34 35 35 36 36 36 36 36 36 35 35 35 35 34 34 33 33 32 32
18 20 20 21 22 22 23 24 25 27 28 28 29 29 30 31 31 31 32 32 33 34 34 34 35 36 36 36 36 36 35 35 34 33 33 32 32 31 31 30 30 29 29
18 19 19 20 21 22 23 24 26 27 27 28 29 29 30 30 31 31 32 32 33 34 35 35 35 35 36 35 35 34 33 33 32 31 30 30 29 29 29 28 27 26 26
18 19 20 21 22 23 24 25 25 26 27 28 29 30 31 32 32 32 32 33 33 34 34 34 34 34 33 32 32 31 30 30 29 29 29 28 28 27 27 26 25 25 24

GEFSGL_500_meanwind_168.txt.gz
Wind_Speed
10 10 11 11 11 11 11 12 13 13 14 14 14 14 15 16 17 18 19 20 20 20 20 21 21 21 21 21 22 22 22 22 22 23 24 24 25 24 24 25 26 27 27
9 10 11 11 11 12 11 12 13 13 14 14 14 15 15 15 16 18 19 20 21 21 22 22 23 23 23 24 24 24 23 23 23 24 25 25 26 27 27 27 28 28 29
10 10 11 11 12 12 12 12 12 13 14 14 15 15 16 16 17 18 19 20 21 22 23 23 23 24 24 24 25 26 26 25 25 26 27 28 28 28 29 29 29 29 29
10 10 11 11 12 12 13 13 13 13 14 15 15 15 15 16 17 18 19 20 21 22 22 23 24 25 25 26 26 26 26 26 26 26 27 28 28 29 28 28 28 29 29
10 10 11 12 13 13 13 13 14 14 14 15 15 15 15 15 17 17 18 19 21 21 22 24 25 25 26 26 26 26 26 27 27 27 27 28 29 29 29 29 30 31 31
10 11 11 12 13 12 13 14 14 14 14 14 14 14 15 15 16 17 17 18 20 20 21 23 23 24 25 26 26 26 26 26 27 28 28 29 29 29 29 30 32 33 33
11 11 11 11 11 12 13 14 14 14 14 14 14 14 15 17 17 18 18 19 20 20 21 21 22 23 23 24 26 26 26 27 28 28 28 29 30 30 30 31 32 34 35
12 12 13 13 13 13 13 13 14 15 15 15 15 15 16 17 17 18 19 19 20 20 19 20 21 23 23 24 24 25 26 27 28 27 27 28 29 30 31 32 34 35 36
13 13 14 14 14 14 14 14 14 15 15 15 15 16 17 17 17 17 18 18 19 19 19 20 21 22 21 22 23 24 25 25 25 26 28 29 30 32 33 34 35 37 38
14 14 15 15 14 14 14 14 15 15 15 16 16 17 17 17 18 18 19 19 20 20 21 21 21 20 20 21 22 23 23 24 25 27 29 30 32 33 33 35 37 38 39
15 16 16 15 15 15 15 15 15 16 16 16 17 17 18 19 19 19 20 20 20 20 21 21 21 21 22 22 23 24 25 26 27 29 31 32 33 34 35 36 38 39 40
17 17 16 16 16 16 16 16 16 17 17 17 18 18 18 19 19 20 21 22 22 22 23 23 23 23 24 24 25 26 27 28 29 30 32 33 35 36 37 38 39 40 41
17 17 17 16 16 16 16 17 17 17 18 18 18 19 19 19 20 21 21 22 22 23 24 24 25 25 26 27 27 28 29 30 31 31 33 34 36 36 37 38 39 40 41
18 18 17 17 17 17 17 17 17 17 18 18 19 19 20 20 20 21 21 22 23 23 24 25 26 26 27 28 28 29 30 32 32 33 34 34 35 35 36 36 38 39 40
19 19 18 18 18 18 17 17 17 17 18 18 19 19 19 20 21 21 22 23 23 24 25 26 26 27 28 29 30 30 31 32 32 33 33 34 34 35 35 36 37 38 39
20 20 19 19 18 18 18 18 18 19 19 20 19 20 20 21 21 22 22 23 23 24 26 26 27 28 29 29 30 31 31 32 33 33 34 34 34 35 35 36 37 38 38
20 20 20 20 19 19 19 19 19 20 20 20 20 21 21 22 23 23 24 25 25 26 26 27 28 28 29 30 31 31 32 33 33 34 34 34 34 35 36 36 37 38 38
21 21 21 20 20 20 20 20 20 21 20 20 21 22 23 23 24 25 25 25 26 27 27 28 29 30 30 31 32 32 33 33 34 34 35 35 35 36 36 37 37 37 37
21 21 21 21 21 21 21 21 21 21 21 21 22 23 23 24 25 26 26 27 27 28 29 29 30 30 31 32 32 33 34 34 35 35 35 36 36 36 36 37 37 37 37
20 20 20 20 20 20 20 20 21 21 21 22 22 23 24 25 26 27 28 29 29 29 30 31 31 31 32 33 34 35 35 36 36 36 36 36 36 37 37 36 36 35 35
20 20 21 20 20 19 20 20 21 21 22 23 24 25 26 26 27 28 29 29 29 29 30 31 31 32 33 34 35 36 36 36 36 36 36 36 36 36 36 35 34 34 34
20 20 20 19 20 20 21 21 21 22 23 24 25 25 27 28 28 29 29 30 30 30 31 32 33 33 34 35 36 36 36 36 36 36 36 35 35 35 34 34 33 32 32
20 19 19 19 20 20 21 21 22 23 23 24 25 26 27 27 28 29 30 30 30 31 32 33 34 34 35 35 36 36 35 35 35 34 34 34 33 33 33 32 32 32 31
18 18 19 20 20 21 20 21 22 23 24 25 25 26 27 27 28 29 29 30 31 31 32 32 33 34 34 34 34 34 34 33 33 32 32 32 32 31 31 30 30 30 29
16 17 18 19 19 20 21 22 23 24 25 25 26 27 27 28 29 29 30 30 31 32 32 33 33 33 33 33 33 32 32 31 31 31 31 30 30 30 29 29 28 28 27
15 16 17 18 19 20 21 22 23 23 24 25 26 27 28 29 30 31 31 31 32 32 32 32 32 32 32 31 31 31 30 30 30 30 29 29 29 28 28 27 26 26 25

GEFSGL_500_meanwind_174.txt.gz
Wind_Speed
11 10 11 11 11 12 12 13 13 13 14 15 15 16 17 17 18 18 18 19 20 20 21 21 22 23 24 24 25 25 25 25 25 26 27 27 27 27 27 28 29 29 29
11 11 11 12 12 13 14 14 13 14 14 15 15 16 17 17 18 18 18 18 19 20 21 22 23 24 25 26 26 27 27 27 27 27 28 29 29 29 28 29 29 30 31
10 11 12 13 14 14 14 14 14 14 15 15 15 16 16 17 18 19 19 20 20 21 21 22 24 25 25 26 26 27 27 27 28 28 29 30 30 30 30 31 31 31 32
11 12 12 13 14 15 15 15 15 15 15 15 15 16 17 18 18 19 20 21 21 21 22 23 24 24 25 25 26 26 27 28 29 30 29 30 31 32 32 31 32 33 33
11 11 12 13 13 14 14 15 16 15 15 16 16 17 17 18 19 19 20 20 21 22 22 23 24 25 25 25 25 26 27 28 29 29 30 30 31 31 31 31 32 33 34
11 12 12 12 12 13 14 15 15 15 16 16 16 16 16 17 18 19 20 21 21 22 22 22 22 23 25 25 26 26 27 28 30 31 31 31 30 31 31 32 33 34 34
12 13 13 12 12 13 13 13 15 15 15 16 16 16 16 17 18 19 20 21 21 21 21 22 22 23 24 24 25 27 28 29 30 32 30 30 31 32 32 33 34 35 35
13 13 13 13 13 13 14 15 16 16 16 16 16 17 17 17 18 19 20 20 21 21 22 23 23 24 24 24 25 25 26 27 28 29 30 30 32 32 33 34 35 36 37
13 14 14 13 14 14 14 15 16 16 16 17 17 18 19 19 20 20 21 21 22 23 23 24 24 24 24 25 25 25 26 27 27 28 29 30 30 31 32 33 35 36 36
13 14 15 15 15 15 15 16 16 17 17 17 18 18 19 19 20 20 21 22 23 23 23 24 24 25 26 26 27 27 27 28 29 29 30 31 31 32 33 35 36 37 38
14 15 14 15 15 16 16 16 17 17 17 18 18 19 19 20 20 21 22 22 23 23 24 25 26 27 27 27 27 28 29 30 31 31 32 33 34 34 35 36 37 38 38
16 16 16 16 16 17 17 17 18 18 19 19 19 19 20 20 21 22 23 23 23 24 25 26 27 27 28 28 29 30 30 31 32 32 33 34 34 35 36 36 36 37 38
17 17 17 17 17 18 18 18 19 19 19 20 20 20 21 21 22 22 23 24 24 25 26 26 27 28 28 28 29 30 31 31 32 33 33 34 34 35 35 36 36 36 37
18 19 19 19 19 19 19 19 20 20 20 21 21 21 21 22 22 22 23 23 24 25 26 27 28 29 29 30 30 31 31 31 31 32 33 33 34 35 35 36 36 36 37
19 20 20 20 20 21 21 21 21 21 21 21 21 21 22 22 23 23 23 24 25 26 27 28 29 29 30 30 31 31 31 31 32 32 33 34 34 35 35 35 36 36 37
20 21 21 21 21 22 22 22 22 22 22 22 22 22 23 24 24 25 25 26 27 28 28 29 29 30 30 30 31 31 32 32 33 33 34 35 35 35 35 36 36 37 37
21 21 22 22 22 22 22 22 22 23 23 23 23 24 24 25 26 26 27 27 28 29 29 29 30 31 31 31 31 32 32 33 33 33 34 34 35 36 36 37 37 38 38
22 22 22 22 22 22 23 23 23 23 24 24 25 26 26 27 27 27 27 28 29 29 29 30 31 31 32 32 32 33 33 33 33 34 35 36 36 37 38 38 38 38 38
22 23 23 22 23 23 23 24 24 25 25 25 26 26 27 27 27 27 28 28 29 30 30 31 31 31 32 32 33 33 34 34 34 35 36 37 38 38 38 38 38 38 37
23 23 23 23 24 24 24 25 25 25 26 26 27 27 27 27 27 28 28 29 30 30 30 30 31 31 31 32 33 34 34 35 36 36 37 37 37 37 37 37 37 36 36
23 23 23 23 24 25 26 26 26 26 27 27 27 27 27 27 28 28 29 29 29 29 30 30 31 31 32 33 33 34 35 35 35 36 36 36 35 35 35 34 34 34 34
23 23 23 24 25 26 26 26 26 26 26 26 26 26 26 26 27 28 28 29 29 30 30 31 31 32 33 34 34 35 35 35 35 35 35 34 34 33 33 33 33 32 32
22 23 23 24 25 25 24 25 25 26 25 25 26 26 26 26 27 29 29 30 30 31 31 32 32 33 34 34 35 35 34 34 34 34 34 34 33 32 32 31 31 31 30
21 22 23 23 23 23 24 25 25 25 25 25 26 26 26 26 28 29 29 30 31 31 31 32 33 34 34 34 34 34 34 33 33 33 33 32 32 31 31 30 29 29 28
21 22 22 21 22 22 23 23 24 24 25 25 26 26 27 28 29 29 29 30 31 31 32 32 33 33 33 33 32 32 32 31 31 31 30 30 30 29 29 29 28 27 27
19 20 20 20 21 21 21 22 23 24 25 25 25 26 27 28 28 29 29 30 30 31 31 31 32 31 31 30 30 30 30 29 29 29 28 28 28 28 27 27 26 26 25

GEFSGL_500_meanwind_180.txt.gz
Wind_Speed
11 11 11 12 12 12 13 14 14 15 15 16 15 16 16 16 17 17 18 18 19 19 20 21 21 21 22 23 23 23 24 25 25 26 27 27 28 28 28 28 28 28 30
11 11 11 12 12 13 13 14 14 14 14 15 15 16 16 17 17 18 18 19 19 20 21 21 21 22 22 23 23 24 24 25 25 26 26 27 28 29 29 28 29 30 31
12 12 12 12 13 14 15 14 14 14 14 15 16 17 17 17 18 18 19 19 20 20 21 21 22 22 23 23 24 24 24 25 26 27 28 27 27 28 28 29 31 31 32
12 13 13 13 14 14 14 15 15 15 15 16 16 17 17 17 17 18 19 19 20 20 21 22 23 24 25 25 25 25 26 26 27 28 28 27 28 28 29 31 32 33 34
12 12 13 13 14 14 14 14 15 15 16 16 16 16 17 17 18 18 18 19 19 20 21 21 22 23 23 24 24 26 26 27 27 28 28 28 29 30 31 32 32 32 33
12 13 13 13 13 13 14 14 14 15 15 16 16 16 17 17 17 17 18 18 20 21 22 22 22 23 24 25 25 25 26 26 27 27 27 28 30 31 32 32 32 32 32
13 13 13 13 13 14 13 13 14 15 16 16 17 17 18 18 17 18 19 20 20 21 21 22 23 24 24 25 25 25 25 26 28 28 28 29 31 32 33 32 32 33 33
14 14 14 14 14 14 14 13 13 14 15 16 17 18 18 18 19 19 20 20 21 22 23 23 24 24 25 25 26 26 27 27 28 28 28 29 30 31 32 33 33 34 33
13 14 14 14 13 14 14 14 14 14 15 16 17 18 19 19 19 20 21 22 23 24 24 24 24 25 25 25 26 26 27 28 28 28 29 29 30 31 32 33 33 33 33
14 14 14 14 14 14 14 15 15 16 17 17 18 18 19 19 20 21 22 22 24 24 24 24 25 25 26 27 27 27 27 27 28 28 29 29 30 31 32 33 34 34 34
15 15 15 15 15 15 15 15 16 16 17 18 19 19 19 20 21 22 22 23 24 25 25 25 26 26 27 27 27 27 27 28 28 29 29 30 31 32 33 34 34 34 34
16 16 16 16 16 16 16 17 17 17 18 19 19 20 20 21 22 23 23 24 24 25 25 26 27 27 27 28 28 28 29 29 30 30 31 32 33 33 33 33 33 33 33
17 17 17 17 18 18 18 18 19 19 19 19 20 20 21 22 23 24 25 25 25 25 25 26 26 27 27 28 29 29 30 30 31 32 32 33 33 33 33 33 34 34 34
18 18 19 19 20 20 20 20 20 20 20 21 21 21 22 23 24 25 25 25 26 26 26 26 26 27 28 29 30 31 31 32 32 32 33 33 33 33 33 33 34 34 34
19 20 20 21 21 21 21 21 21 22 22 22 23 23 24 24 25 26 26 27 27 27 27 27 28 29 29 30 31 31 31 32 32 32 33 33 33 33 33 33 33 34 34
21 21 22 22 22 22 22 22 23 23 23 23 24 25 25 25 26 26 26 26 27 27 27 28 29 30 31 31 31 31 32 32 32 32 32 32 32 33 33 34 35 35 35
21 21 21 22 22 22 22 22 23 23 24 25 25 25 26 26 26 26 27 27 28 28 28 29 30 30 30 31 31 32 32 32 32 32 32 33 34 34 34 35 35 35 35
22 22 22 22 23 23 24 24 25 25 25 26 26 26 26 27 27 27 27 27 28 29 29 29 30 30 31 31 31 31 31 32 32 32 33 33 34 34 34 35 35 35 35
23 23 23 24 24 25 25 25 26 26 26 27 27 28 27 27 27 28 28 29 29 29 29 30 30 31 31 31 31 32 32 32 33 33 33 34 34 34 34 34 34 34 33
24 24 24 25 25 25 25 26 26 27 27 27 28 28 28 28 28 29 29 29 29 29 29 30 31 31 31 31 32 32 33 33 33 33 34 34 34 34 34 33 33 32 32
24 24 25 25 25 25 25 26 26 27 27 27 28 28 28 28 28 28 28 28 28 29 29 30 31 31 32 32 33 33 34 34 33 34 34 33 33 33 32 32 32 32 31
24 24 24 25 25 25 26 26 27 27 27 27 28 28 28 27 27 27 27 28 29 29 30 31 31 32 32 33 33 33 33 33 33 32 32 31 31 31 31 30 30 30 29
24 24 24 25 25 25 25 26 26 26 27 27 27 26 26 26 26 27 28 29 29 30 30 31 32 32 32 32 32 32 32 31 31 31 30 30 29 29 29 28 28 27 27
24 24 24 24 24 24 25 25 26 26 26 26 25 25 25 26 27 27 28 29 29 30 30 30 30 31 31 31 31 31 30 30 29 29 28 28 27 27 26 26 26 25 26
23 23 23 23 23 23 23 24 24 24 24 25 24 25 25 26 27 27 28 28 29 29 29 29 30 30 30 30 29 28 28 28 27 27 27 26 25 25 25 24 24 24 25
21 22 22 22 22 22 22 23 23 24 24 25 25 25 26 26 26 27 27 28 28 28 28 28 29 29 28 28 27 27 26 26 26 25 25 25 24 24 24 24 24 25 25

GEFSGL_500_meanwind_186.txt.gz
Wind_Speed
10 10 9 10 10 11 11 11 12 12 13 14 15 15 15 15 15 15 15 16 17 17 18 18 18 19 19 19 20 21 21 22 22 23 23 23 24 24 24 25 26 26 27
10 10 10 11 11 11 12 12 13 13 14 14 14 14 14 15 15 15 16 16 17 17 18 18 18 19 20 21 21 21 22 23 23 23 23 25 25 25 26 27 27 27 28
11 11 11 11 12 12 12 13 14 15 15 14 14 14 14 15 15 16 16 17 17 18 18 18 19 19 20 21 21 22 23 24 24 24 24 24 25 26 27 27 28 28 29
11 11 11 12 12 12 13 14 15 15 15 15 15 15 15 15 15 16 17 17 17 17 18 19 19 19 20 22 22 23 24 24 25 25 25 26 26 27 26 27 27 28 29
12 11 12 12 13 12 13 14 14 14 14 14 15 15 15 15 16 16 17 17 17 17 18 19 19 20 21 23 24 25 25 25 26 26 26 27 27 27 28 28 28 29 30
12 12 12 13 13 13 13 14 14 14 14 14 15 15 15 16 16 17 18 18 18 19 19 20 21 21 22 23 23 24 25 25 26 27 27 28 28 28 28 29 29 29 30
12 12 12 13 13 13 14 14 14 14 15 16 15 15 16 16 17 18 19 18 18 19 20 21 22 23 23 24 25 25 26 26 27 27 28 28 28 27 28 29 29 30 31
13 13 13 14 13 14 14 15 15 15 15 15 15 15 15 16 17 17 18 18 19 20 21 22 23 24 25 25 26 27 27 27 28 28 28 28 28 28 28 29 30 30 31
14 14 14 14 14 15 15 16 16 15 16 16 16 16 16 17 17 18 19 19 21 22 23 23 24 25 26 26 27 28 28 29 29 28 28 29 29 29 29 30 30 31 32
15 15 15 15 15 15 16 16 16 16 17 17 17 17 17 18 18 19 20 21 22 23 24 25 26 26 27 27 28 28 29 29 29 29 29 30 30 31 32 32 33 33 34
16 16 16 16 16 17 17 17 17 18 18 18 18 18 19 19 20 21 22 22 23 23 25 26 26 27 27 28 28 28 29 29 30 30 31 31 32 32 33 34 35 35 35
16 16 17 18 18 18 18 18 18 19 19 19 20 20 21 21 22 22 23 23 24 24 25 26 27 27 27 28 28 30 31 31 32 33 33 34 34 34 35 35 35 35 35
17 17 18 18 19 19 19 19 20 20 20 20 21 21 22 23 23 24 24 24 25 26 27 27 27 28 28 29 30 31 32 33 34 34 35 35 35 35 35 35 35 35 35
18 19 19 19 19 19 20 21 21 22 22 22 22 23 23 24 25 25 25 26 27 27 27 28 28 29 29 30 31 32 32 33 34 35 35 35 36 36 35 34 34 34 34
20 20 20 21 21 21 22 22 22 23 23 24 24 24 25 25 26 27 27 27 28 28 28 28 29 29 30 31 32 33 34 34 34 35 36 36 36 35 35 35 35 35 34
21 21 21 22 22 22 22 23 23 24 25 25 25 26 26 27 28 28 28 28 29 29 29 29 30 30 32 33 33 34 34 35 35 36 36 35 35 35 35 36 35 35 36
23 23 23 22 23 23 23 24 24 25 26 26 27 27 28 28 29 29 29 29 30 30 30 30 31 32 33 33 34 34 35 35 35 35 35 35 35 36 36 36 36 36 36
24 24 23 23 23 24 24 25 26 26 26 27 27 28 29 29 30 30 30 31 31 31 31 31 32 33 33 33 34 34 35 35 35 35 35 35 36 36 36 36 36 36 35
23 24 24 25 25 25 25 26 26 26 27 27 28 29 30 30 31 31 31 31 31 31 31 32 32 33 33 33 34 34 35 35 35 35 35 35 36 36 36 35 35 34 33
24 24 25 25 25 26 26 27 27 27 28 29 29 30 30 30 30 31 31 31 31 31 32 32 32 32 33 33 33 34 34 35 35 35 35 35 35 35 34 34 33 32 31
25 25 25 26 26 26 26 27 27 28 29 29 30 30 30 30 31 31 30 31 31 32 32 32 32 32 33 33 33 34 34 34 34 34 33 33 33 33 32 32 31 30 29
25 25 25 25 26 26 27 27 28 29 29 29 29 30 30 30 30 30 30 31 31 32 32 32 32 32 32 32 33 34 34 34 34 33 32 31 31 31 30 30 29 29 28
25 25 25 26 27 27 28 28 29 30 29 29 30 31 31 30 30 30 31 32 32 32 32 32 32 32 32 33 33 34 34 34 33 32 32 31 30 30 29 29 28 27 26
24 25 25 26 26 27 28 28 29 29 29 30 30 30 30 30 30 31 32 32 32 32 31 31 32 32 32 32 32 33 32 32 31 31 30 29 29 29 28 28 27 26 26
24 24 24 25 26 27 27 28 28 29 29 29 29 30 30 30 31 31 31 31 31 31 31 31 31 32 32 31 31 30 30 30 30 30 29 29 28 28 27 27 26 25 25
24 24 25 25 26 26 26 26 26 27 27 28 29 30 30 30 30 31 30 30 31 31 31 31 31 31 31 30 30 29 29 29 29 29 28 28 27 27 26 26 26 26 26

GEFSGL_500_meanwind_192.txt.gz
Wind_Speed
6 6 7 7 7 6 6 7 8 9 10 10 11 12 12 12 12 13 12 12 13 14 15 15 16 17 17 18 17 17 18 18 18 19 20 20 21 22 23 23 23 24 24
6 6 7 8 7 7 7 8 9 9 10 11 11 11 11 11 12 12 12 12 13 14 14 15 15 16 16 16 16 16 17 18 18 19 21 21 22 23 24 24 24 24 25
7 8 8 8 8 8 8 8 9 9 10 10 11 11 11 11 12 11 11 12 13 13 14 15 16 16 17 17 17 17 18 19 20 21 22 22 23 24 25 25 25 26 27
8 8 9 9 9 9 8 8 9 9 10 10 11 11 11 11 11 11 11 12 13 14 15 15 16 17 17 17 18 19 20 21 22 22 23 24 25 25 25 25 26 27 27
8 9 9 9 9 9 9 9 9 9 10 10 10 11 11 11 11 11 11 12 13 14 15 16 16 17 18 19 21 21 21 22 23 24 24 24 25 25 25 26 27 28 28
9 9 9 9 9 9 9 8 9 9 10 10 11 11 11 11 11 12 12 13 14 14 15 16 17 18 19 21 22 22 22 23 24 24 24 25 25 26 27 28 28 28 29
9 9 9 9 9 9 9 9 9 10 10 10 11 11 12 12 12 12 13 13 14 15 16 17 18 18 20 21 21 22 24 23 24 24 25 26 26 27 28 29 29 29 30
10 10 10 9 9 9 10 10 10 11 11 11 12 12 12 12 13 14 15 15 15 16 17 18 18 19 20 21 21 22 23 24 25 25 26 26 27 29 29 30 30 31 32
11 11 11 10 10 10 11 11 11 11 12 12 12 13 13 14 15 16 16 16 15 16 17 18 19 20 20 21 22 23 24 25 25 26 27 28 29 30 31 32 32 33 34
12 12 12 12 12 12 12 12 13 13 13 13 13 14 15 16 16 17 17 17 18 19 20 20 20 21 21 22 23 24 25 26 27 27 28 29 31 32 33 33 34 35 35
14 14 13 13 13 12 12 13 14 14 14 15 16 16 16 17 18 18 18 19 20 21 22 22 22 22 23 23 24 25 26 27 28 29 30 31 32 33 34 35 35 36 36
15 15 14 14 14 14 14 14 14 14 14 15 16 17 18 18 19 20 21 22 22 23 23 23 23 24 25 26 26 27 27 28 30 31 32 33 33 33 34 35 35 36 36
15 15 15 14 15 15 15 15 15 15 16 17 18 19 20 20 21 22 23 24 24 24 24 24 24 25 27 27 28 28 29 31 32 33 33 34 34 34 34 34 34 35 35
16 15 16 16 16 16 16 16 17 17 18 19 19 20 21 22 23 23 24 24 25 25 25 26 26 27 28 29 29 30 31 32 33 34 34 35 35 35 35 35 35 35 35
18 18 18 18 18 18 18 18 18 19 19 20 21 22 22 23 24 24 25 25 26 26 27 27 28 29 30 30 31 31 32 33 34 34 35 35 35 35 35 35 35 35 35
19 20 19 19 19 19 18 19 19 20 21 22 23 23 23 24 24 25 26 27 27 28 28 29 29 30 31 31 32 33 34 34 35 35 35 35 35 35 35 34 35 35 35
20 20 19 19 19 19 20 20 21 22 22 23 24 24 24 24 25 26 27 27 28 29 29 30 30 31 32 33 33 34 34 35 35 34 35 34 34 34 34 34 34 35 34
20 20 20 20 20 21 22 22 22 23 24 24 24 24 24 25 26 27 28 28 29 29 30 31 31 32 33 34 34 35 35 35 34 34 33 33 33 33 33 33 33 33 32
21 20 21 21 21 22 22 23 23 24 24 24 25 25 25 27 27 28 29 29 30 30 31 32 33 33 34 34 35 34 34 34 34 33 33 33 32 32 32 32 32 32 31
21 21 21 21 21 22 23 23 24 25 25 25 26 26 27 28 29 29 30 30 31 31 32 33 34 34 34 34 34 34 34 33 33 32 32 32 32 32 31 31 31 30 30
22 22 22 22 23 24 24 25 25 26 26 27 27 28 29 30 30 30 30 31 32 33 33 34 34 33 34 34 34 33 33 33 32 32 31 31 31 31 31 30 30 29 29
22 22 23 24 24 24 25 26 26 27 27 27 28 29 29 30 30 30 31 31 32 33 33 33 33 33 33 33 33 32 32 32 32 32 31 31 31 31 30 30 29 29 28
24 24 24 25 24 25 25 26 26 27 28 28 28 29 29 29 30 30 31 32 32 32 31 31 31 32 32 32 31 31 31 31 31 32 31 31 30 30 30 29 29 27 26
25 25 25 25 25 25 26 26 26 26 27 27 28 29 29 29 30 30 31 31 31 30 30 31 31 31 32 31 31 30 30 30 30 30 30 30 30 30 29 28 28 27 27
24 25 24 25 25 26 26 27 27 27 27 27 28 28 28 29 29 30 30 30 30 30 30 30 30 31 30 30 30 30 30 30 30 30 30 29 29 29 28 27 27 27 28
25 24 24 24 25 25 26 27 27 27 27 27 28 28 28 29 29 29 29 30 30 30 30 30 30 30 30 30 30 30 30 30 30 30 29 29 28 27 27 27 27 27 27

GEFSGL_500_meanwind_198.txt.gz
Wind_Speed
9 9 9 9 9 9 9 9 9 9 9 10 11 11 12 12 12 12 12 13 13 13 13 13 14 15 17 17 17 18 19 19 19 21 22 22 21 22 22 23 24 25 26
10 9 9 9 9 9 9 9 9 9 9 10 11 11 11 11 11 12 12 12 13 13 13 14 15 15 16 17 18 19 20 20 21 21 23 24 24 24 24 25 26 27 27
10 9 9 9 9 9 9 10 10 9 10 10 10 10 10 10 11 11 11 12 12 13 14 15 16 16 17 18 19 20 20 21 22 22 23 24 24 25 25 26 27 28 29
9 9 8 8 8 9 9 9 10 10 10 10 11 11 11 11 11 11 11 12 12 12 13 14 15 16 17 18 19 20 21 22 23 23 23 24 25 26 26 27 28 28 30
9 8 8 8 9 9 9 10 10 10 10 10 11 11 11 11 11 12 12 13 13 13 14 15 15 16 17 18 19 20 21 22 23 23 24 25 26 26 27 28 29 30 30
10 9 9 10 10 10 10 10 10 9 10 11 10 10 11 11 11 12 13 15 14 14 15 15 16 17 18 19 19 20 21 22 23 24 25 25 26 27 27 28 30 31 32
11 10 11 11 11 11 11 11 10 10 11 11 10 11 11 12 13 13 14 15 15 15 15 16 17 18 18 19 21 21 21 22 23 25 25 26 27 27 28 29 31 32 32
12 11 12 12 11 12 11 11 11 11 11 11 12 12 13 14 15 15 16 17 17 17 17 18 18 19 20 21 21 22 23 24 24 25 26 27 28 29 29 30 32 33 33
13 12 12 12 13 13 12 12 12 12 13 13 13 14 14 15 16 17 17 18 18 19 19 20 21 22 22 22 22 23 24 25 26 27 28 28 29 30 31 32 33 33 34
14 13 12 13 13 14 13 13 13 14 14 14 15 15 16 17 17 18 19 20 20 20 21 22 22 23 24 24 24 24 25 26 27 28 28 29 30 31 32 33 33 34 35
14 14 13 14 14 14 15 15 15 15 15 16 16 17 17 18 19 20 21 21 21 22 23 23 24 25 24 24 25 26 27 27 28 29 30 31 32 33 33 34 35 36 36
14 14 14 15 15 14 15 15 15 16 16 16 17 17 18 19 20 21 21 22 23 24 24 24 25 25 25 26 26 27 28 29 30 31 31 32 33 34 35 36 36 37 37
15 15 15 15 15 15 16 16 16 17 17 18 19 20 21 21 21 21 21 22 23 24 25 25 26 26 27 27 28 29 30 31 32 32 33 34 35 36 36 36 36 37 36
16 16 15 16 16 17 18 17 18 18 19 20 21 21 21 21 21 22 23 23 25 26 26 26 27 27 28 29 30 30 32 33 33 34 35 36 36 36 36 35 36 36 35
16 16 16 17 17 18 18 18 19 20 21 21 21 22 22 22 22 23 24 25 26 26 27 27 28 29 29 30 31 32 33 34 35 36 36 36 36 36 35 35 35 35 34
17 17 17 17 18 18 18 19 20 21 21 22 22 22 23 23 23 24 25 26 27 28 28 29 30 30 31 32 33 34 35 35 35 36 36 36 35 35 35 35 35 34 34
18 18 18 18 18 18 18 19 19 20 21 22 22 24 25 25 25 26 27 28 28 29 30 31 32 33 34 35 35 35 35 35 35 35 34 34 35 35 35 34 34 34 34
20 20 19 18 19 20 20 20 21 22 23 23 23 25 26 26 27 27 28 29 30 30 31 33 34 35 35 35 35 35 35 35 35 35 34 34 35 34 34 34 34 33 33
22 21 20 21 21 22 22 22 23 23 24 25 26 27 27 28 28 29 30 31 32 32 33 34 35 36 36 36 35 35 35 35 35 35 35 35 34 34 33 33 32 32 32
22 22 22 22 22 23 24 24 24 25 26 27 28 28 29 29 30 31 31 32 33 33 34 35 36 36 35 35 35 34 34 35 35 35 34 34 34 33 32 32 32 31 31
23 23 23 23 23 24 24 25 26 27 28 28 30 30 30 30 31 31 32 32 33 34 35 35 35 35 34 34 34 34 34 34 34 34 33 33 32 32 32 32 31 31 31
24 25 25 25 25 25 25 26 27 28 29 30 30 30 30 31 32 31 32 33 33 34 34 34 34 34 33 33 33 33 33 33 33 32 32 31 31 31 31 31 31 31 30
26 26 25 25 25 26 27 27 29 29 30 30 30 30 31 31 31 32 32 33 33 33 33 32 33 33 33 33 32 32 32 32 32 31 31 31 31 31 31 31 32 31 31
26 26 26 26 26 26 27 28 28 29 29 29 29 30 31 31 31 31 31 32 32 32 32 32 33 32 32 32 32 32 31 31 31 31 31 31 31 31 31 31 31 31 31
26 25 26 26 26 27 27 28 29 29 29 29 29 30 30 31 31 31 31 31 32 32 32 32 32 32 32 32 32 31 31 31 31 31 31 31 31 31 31 31 31 31 30
26 25 25 26 26 27 27 28 28 29 29 29 29 30 30 30 31 31 31 31 32 32 32 32 32 32 31 31 31 31 31 31 31 31 31 31 31 30 30 30 30 30 29